Regional Weather Roundup
Issued by NWS Northern Indiana

Home | Current Version | Previous Version | Graphics & Text | Print | Product List | Glossary On
Versions: 1 2 3 4 5 6 7 8 9 10 11 12 13 14 15 16 17 18 19 20 21 22 23 24 25 26 27 28 29 30 31 32 33 34 35 36 37 38 39 40 41 42 43 44 45 46 47 48 49 50
000
ASUS43 KIWX 282010
RWRIWX

KIWX WEATHER ROUNDUP
NATIONAL WEATHER SERVICE NORTHERN INDIANA
400 PM EDT SUN AUG 28 2016

NOTE: "FAIR" INDICATES FEW OR NO CLOUDS BELOW 12,000 FEET WITH NO
SIGNIFICANT WEATHER AND/OR OBSTRUCTIONS TO VISIBILITY.

* THESE STATIONS ARE NOT UNDER NWS QUALITY CONTROL. THEY ALSO MAY NOT
  REPORT WEATHER SUCH AS PRECIPITATION OR FOG.

INZ001>027-282100-
NORTHERN INDIANA

CITY           SKY/WX    TMP DP  RH WIND       PRES   REMARKS
GARY*          PTSUNNY   77  72  83 NE7       30.20S
VALPARAISO     LGT RAIN  71  69  93 N3        30.20F
MICHIGAN CITY* PTSUNNY   81  70  69 MISG      30.20F
LAPORTE*       CLOUDY    74  74 100 NW5       30.21R THUNDER
KNOX*          CLOUDY    72  55  56 CALM      30.19F
SOUTH BEND     CLOUDY    77  70  79 SE8       30.21R
GOSHEN         RAIN      73  65  75 NW5       30.22R
MONTICELLO*    CLOUDY    86  69  55 CALM      30.16F
LOGANSPORT*    MOSUNNY   86  70  58 CALM      30.17F
ROCHESTER*     CLOUDY    88  73  62 NW7       30.19R HX  96
WARSAW*        DRIZZLE   70  68  94 N16G32    30.21R
ANGOLA*        PTSUNNY   81  75  83 CALM      30.20R
FORT WAYNE     PTSUNNY   89  71  55 W6        30.18F HX  95
HUNTINGTON*    MOSUNNY   88  73  60 SW5       30.18R
PERU/GRISSOM   PTSUNNY   90  72  54 NE5       30.16F HX  96
MARION*        MOSUNNY   87  71  58 CALM      30.18S

$$
INZ028>050-282100-
CENTRAL INDIANA

CITY           SKY/WX    TMP DP  RH WIND       PRES   REMARKS
LAFAYETTE      PTSUNNY   86  74  67 N6        30.14F
KOKOMO*        SUNNY     88  73  62 CALM      30.17S HX  96
MUNCIE*        SUNNY     89  72  56 CALM      30.17F HX  96
INDIANAPOLIS   PTSUNNY   90  72  55 SW5       30.15F HX  97

$$
MIZ043>046-050>051-056>058-064>065-071>073-077>080-282100-
SOUTHWEST LOWER MICHIGAN

CITY           SKY/WX    TMP DP  RH WIND       PRES   REMARKS
BATTLE CREEK   SUNNY     82  70  66 SW8       30.21R
BENTON HARBOR  SUNNY     82  68  62 VRB5      30.19F
COLDWATER*     CLOUDY    81  71  73 NW3       30.20R
HILLSDALE*     MOSUNNY   83  71  66 CALM      30.20S
HOLLAND        SUNNY     82  65  56 NW6       30.20S
GRAND RAPIDS   MOSUNNY   83  64  52 CALM      30.19S
KALAMAZOO      MOSUNNY   84  67  56 CALM      30.19F
STURGIS*       RAIN      78  73  87 CALM      30.20R
THREE RIVERS*  PTSUNNY   81  73  78 SW5       30.20F

$$
OHZ001>008-015>018-024>025-282100-
NORTHWEST OHIO

CITY           SKY/WX    TMP DP  RH WIND       PRES   REMARKS
DEFIANCE       PTSUNNY   80  67  64 N12       30.18F
FINDLAY        MOSUNNY   89  70  53 CALM      30.17F
TOLEDO EXPRESS LGT RAIN  73  70  90 N3        30.18F
TOLEDO METCALF CLOUDY    78  72  81 VRB5      30.20F
LIMA           PTSUNNY   86  75  69 N5        30.18F HX  95

$$
AND FOR LAKE MICHIGAN COASTAL AND OPEN LAKE BUOY OBSERVATIONS

STATION/POSITION TEMP    WIND        PRES    VSBY  WAVE
                 AIR SEA DIR/SP/G                  HT/PER
                 (F)     (DEG/KT/KT) (MB)    (MI)  (FT/S)
CALUMET HARBOR    74      60/  8/ 10 1022.3R
MICHIGAN CITY     74      40/  8/  9   N/A
BURNS HARBOR      75      30/  4/ 14 1022.7F
SAINT JOSEPH      77      10/  6/  9 1023.4R
SOUTH LAKE BUOY   72 75   50/  6/  8 1022.2R         1
4 MI NW BRIDGMAN  74 76   10/ 10/ 12 1022.1F         1/ 2
MICHIGAN CITY     76 77   40/  8/ 10   N/A           1/ 3

$$
&&




USA.gov is the U.S. government's official web portal to all federal, state and local government web resources and services.